Location: Bamobli
(6.6379°N, 10.9396°W)
Time: 21:16:31
(UTC+00:00)

N. Korean satellite - Pass Details

Date: 05 March 2021
Orbit: 453 x 499 km, 97.2° (Epoch: 12 April)

Event Time Altitude Azimuth Distance (km) Brightness Sun altitude
Rises 06:15:05 0° 354° (N) 2,542 10.1 -10.6°
Reaches altitude 10° 06:17:19 10° 343° (NNW) 1,671 9.1 -10.1°
Maximum altitude 06:20:28 29° 282° (WNW) 923 7.4 -9.3°
Drops below altitude 10° 06:23:40 10° 220° (SW) 1,691 9.0 -8.5°
Sets 06:25:56 0° 209° (SSW) 2,579 10.0 -7.9°
